Regional Weather Roundup
Issued by NWS

Home | Current Version | Previous Version | Graphics & Text | Print | Product List | Glossary Off
Versions: 1 2 3 4 5 6 7 8 9 10 11 12 13 14 15 16 17 18 19 20 21 22 23 24 25 26 27 28 29 30 31 32 33 34 35 36 37 38 39 40 41 42 43 44 45 46 47 48 49 50

541
ASUS43 KMKX 212007
RWRWI

WISCONSIN REGIONAL WEATHER ROUNDUP
NATIONAL WEATHER SERVICE MILWAUKEE/SULLIVAN WI
300 PM CDT THU MAY 21 2015

NOTE: "FAIR" INDICATES FEW OR NO CLOUDS BELOW 12,000 FEET WITH NO
SIGNIFICANT WEATHER AND/OR OBSTRUCTIONS TO VISIBILITY.

WIZ001-002-006>008-014>016-023>028-212100-
NORTHWEST WISCONSIN

CITY           SKY/WX    TMP DP  RH WIND       PRES   REMARKS
SUPERIOR ARPT  SUNNY     64  38  39 E7        30.01F
ASHLAND        SUNNY     65  37  35 N9        30.02S
HAYWARD        SUNNY     67  27  22 VRB6G18   30.00R
SIREN          SUNNY     69  35  29 N10G17    30.00F
CUMBERLAND     SUNNY     68  34  28 N10G21    30.00R
RICE LAKE      MOSUNNY   70  36  28 NW13G20   30.00S
CHETEK         PTSUNNY   70  42  35 NW6       29.98S
LADYSMITH      MOSUNNY   68  38  33 N9        29.98S
EAU CLAIRE     NOT AVBL
MENOMONIE      SUNNY     71  35  26 NW14G20   29.98F
NEW RICHMOND   SUNNY     71  33  24 W14G21    30.00S
OSCEOLA        SUNNY     72  36  26 NW12G17   30.02S
$$

WIZ003>005-009-010-017-018-212100-
NORTH CENTRAL WISCONSIN

CITY           SKY/WX    TMP DP  RH WIND       PRES   REMARKS
MANITOWISH WTR SUNNY     61  29  30 N12G21    29.99R
ARBOR VITAE    SUNNY     63  31  30 NW17G24   29.97R
WOODRUFF       SUNNY     63  31  30 NW17G24   29.97R
RHINELANDER    SUNNY     67  34  29 VRB7G22   29.95R
EAGLE RIVER    SUNNY     65  24  21 N17G23    29.96R
LAND O LAKES   SUNNY     62  23  22 N13G22    29.98R
PHILLIPS       SUNNY     64  37  35 N13G21    29.97R
TOMAHAWK       MOSUNNY   68  36  30 NW14G21   29.94S
MEDFORD        MOSUNNY   70  37  29 W17       29.94F
MERRILL        PTSUNNY   66  36  33 NW9G17    29.94R
$$

WIZ029-030-035-036-043>047-212100-
CENTRAL WISCONSIN

CITY           SKY/WX    TMP DP  RH WIND       PRES   REMARKS
WAUSAU         MOSUNNY   72  35  25 W20G29    29.92F
MOSINEE        MOSUNNY   70  34  26 W17G28    29.95F
MARSHFIELD     MOSUNNY   71  35  26 W13G23    29.95S
STEVENS POINT  PTSUNNY   69  35  28 W15       29.95F
WAUPACA        MOSUNNY   74  31  20 W12G20    29.94S
WAUTOMA        NOT AVBL
WISC RAPIDS    PTSUNNY   73  31  21 W18G26    29.96F
CAMP DOUGLAS   NOT AVBL
$$

WIZ011>013-019>022-031-037>040-048>050-212100-
NORTHEAST WISCONSIN

CITY           SKY/WX    TMP DP  RH WIND       PRES   REMARKS
ANTIGO         PTSUNNY   66  35  31 NW14G24   29.92S
SHAWANO        MOSUNNY   73  32  22 W18G30    29.91S
OCONTO         CLOUDY    71  35  26 W16G25    29.87S
STURGEON BAY   PTSUNNY   64  39  39 N8        29.91R
GREEN BAY      MOSUNNY   74  36  25 W17       29.90F
MANITOWOC      NOT AVBL
APPLETON       PTSUNNY   70  32  24 W15       29.93F
CLINTONVILLE   CLOUDY    70  32  24 NW16G23   29.91F
OSHKOSH        PTSUNNY   71  37  28 NW13      29.94F
$$

WIZ032>034-041-042-053>061-212100-
SOUTHWEST WISCONSIN

CITY           SKY/WX    TMP DP  RH WIND       PRES   REMARKS
LA CROSSE      PTSUNNY   76  38  25 W17       29.96F
SPARTA         MOSUNNY   72  33  23 W13G20    29.99S
VIROQUA        SUNNY     71  36  27 W13G21    30.01F
BOSCOBEL       SUNNY     74  38  27 W10       30.01F
PRAIRIE DU CHI SUNNY     71  38  30 SW15G21   30.02F
PLATTEVILLE    SUNNY     68  43  40 SW10G20   30.05F
$$

WIZ056-057-062-063-064-067-068-212100-
SOUTH CENTRAL WISCONSIN

CITY           SKY/WX    TMP DP  RH WIND       PRES   REMARKS
REEDSBURG      MOSUNNY   70  39  32 SW9G18    29.99S
BARABOO/DELLS  SUNNY     70  34  26 W10       29.99F
LONE ROCK      NOT AVBL
MINERAL POINT  SUNNY     70  32  24 W13       30.03F
MADISON        MOSUNNY   69  35  28 W8        30.00F
MIDDLETON      SUNNY     71  33  24 W8        30.01F
WATERTOWN      SUNNY     69  40  34 W10G18    29.99F
MONROE         SUNNY     66  37  34 W16G23    30.04F
JANESVILLE     MOSUNNY   70  36  28 NW12G17   30.01F
$$

WIZ051-052-058>065-066-070>072-212100-
SOUTHEAST WISCONSIN

CITY           SKY/WX    TMP DP  RH WIND       PRES   REMARKS
MILWAUKEE      MOSUNNY   69  34  27 W13       29.99S
WAUKESHA       MOSUNNY   66  36  32 W14G24    30.00F
MILWAUKEE/TIMM SUNNY     70  30  23 W12G23    29.99S
RACINE         MOSUNNY   69  36  29 N12G17    30.01F
BURLINGTON     SUNNY     65  35  33 W12G18    30.01S
KENOSHA        SUNNY     69  37  30 W16       30.00F
FOND DU LAC    SUNNY     72  34  24 W10G21    29.95F
SHEBOYGAN      SUNNY     71  38  29 W16G22    29.94F
WEST BEND      SUNNY     68  32  26 W14G28    29.97F
JUNEAU         SUNNY     67  38  33 W16       29.99F
$$

LSZ147-162-212100-
LAKE SUPERIOR

STATION/POSITION TIME  TEMP    WIND        PRES    WAVE
                       AIR SEA DIR/SP/G            HT/PER
                 (UTC) (F)     (DEG/KT/KT) (MB)    (FT/S)
W MID LAKE BUOY  1850   40 37  200/  6/  8   N/A     1
DEVILS ISLAND    1900   54     120/  8/ 10   N/A
PORT WING        1940   45     300/  4/  7   N/A
SAXON HARBOR     1940   49        CALM       N/A
$$

LMZ867-665-643>646-212100-
LAKE MICHIGAN

STATION/POSITION TIME  TEMP    WIND        PRES    WAVE
                       AIR SEA DIR/SP/G            HT/PER
                 (UTC) (F)     (DEG/KT/KT) (MB)    (FT/S)
CHAMBERS ISLAND  1900   58      50/ 12/ 15   N/A
N MID LAKE BUOY  1850   40 36  220/  6/  8   N/A     1/ 3
NORTHPORT PIER   1900   50     140/  7/  8   N/A
SISTER BAY       1902           60/ 11/ 13   N/A
KEWAUNEE LAKESHO 1900   70     270/ 11/ 22   N/A
SHEBOYGAN LAKESH 1900   67     290/ 12/ 15   N/A
PORT WASHINGTON  1900   71     260/  9/ 13   N/A
ATWATER BUOY     1900   62 44  270/ 10/ 10   N/A
MILWAUKEE LAKESH 1900   65     290/ 10/ 20   N/A
S MID LAKE BUOY  1850   43 38  200/ 12/ 12   N/A     1/ 3
KENOSHA   LAKESH 1800   63     270/ 10/ 17   N/A
$$

TC  - TEMPERATURE IN CELSIUS
VSB - VISIBILITY IN STATUTE MILES
WCI - WIND CHILL INDEX
HX  - HEAT INDEX




USA.gov is the U.S. government's official web portal to all federal, state and local government web resources and services.